Location: Newark
(46.7636°N, 1.8358°W)
Time: 15:50:35
(UTC+00:00)

Tiros 1 - Pass Details

Date: 30 October 2019
Orbit: 630 x 664 km, 48.4° (Epoch: 14 November)

Event Time Altitude Azimuth Distance (km) Brightness Sun altitude
Exits shadow 04:25:32 18° 179° (S) 1,599 9.1 -24.5°
Drops below altitude 10° 04:27:13 10° 163° (SSE) 2,074 9.9 -24.2°
Sets 04:29:52 0° 151° (SSE) 2,983 10.9 -23.8°
